Flag for Poland Weather past 2 weeks in Tarnów, Poland

Now
59 °F

Overcast.


Feels Like: 59 °F
Forecast: 56 / 72 °F
Wind: 2 mph from Northeast

Location: Tarnow

Current Time: Sep 3, 2014 at 5:56:26 AM

Latest Report: Sep 3, 2014 at 4:00 AM


Visibility: 6 mi

Pressure: 30.12 "Hg

Humidity: 91%

Dew point: 56 °F

Location of TarnówLocation

Historic Weather in Tarnów — Graph

°F

Tarnów temperature yesterday

Maximum temperature yesterday: 72 °F (at 3:00 PM)
Minimum temperature yesterday: 61 °F (at 3:00 AM)
Average temperature yesterday: 64 °F

Past Weeks' High & Low Weather Summary

 TemperatureHumidityPressure
High75 °F (Aug 23, 1:00 PM)98% (Aug 20, 7:00 AM)30.15 "Hg (Aug 20, 7:00 AM)
Low42 °F (Aug 22, 5:00 AM)36% (Aug 29, 2:00 PM)29.75 "Hg (Aug 26, 2:00 PM)
Average60 °F81%29.98 "Hg
* Reported Aug 19 4:00 AM — Sep 3 4:00 AM, Tarnów, Weather by CustomWeather, © 2014

Note: Actual official high and low records may vary slightly from our data, if they occured in-between our weather recording intervals... More about our weather records

Advertising

Tarnów weather history for previous 24 hours

 ConditionsComfort  
Time TempWeatherWind HumidityBarometerVisibility
4:00 AM
Sep 3
59 °FOvercast.2 mph91%30.12 "Hg6 mi
3:00 AM59 °FOvercast.2 mph90%30.12 "Hg7 mi
2:00 AM60 °FOvercast.2 mph89%30.11 "Hg6 mi
1:00 AM60 °FOvercast.2 mph88%30.11 "Hg6 mi
12:00 AM61 °FOvercast.3 mph86%30.11 "Hg10 mi
11:00 PM
Sep 2
61 °FOvercast.3 mph87%30.11 "Hg10 mi
10:00 PM62 °FOvercast.3 mph84%30.09 "Hg11 mi
9:00 PM63 °FOvercast.3 mph84%30.08 "Hg7 mi
8:00 PM63 °FOvercast.3 mph83%30.06 "Hg9 mi
7:00 PM65 °FOvercast.3 mph79%30.04 "Hg11 mi
6:00 PM67 °FOvercast.3 mph74%30.01 "Hg11 mi
5:00 PM69 °FPartly sunny.3 mph71%29.99 "Hg12 mi
4:00 PM71 °FPartly sunny.3 mph67%29.98 "Hg12 mi
3:00 PM72 °FPartly sunny.3 mph67%29.98 "Hg11 mi
2:00 PM70 °FScattered clouds.3 mph66%29.99 "Hg12 mi
1:00 PM68 °FPartly sunny.3 mph69%29.99 "Hg13 mi
12:00 PM66 °FOvercast.3 mph74%30.00 "Hg11 mi
11:00 AM63 °FOvercast.2 mph80%30.00 "Hg9 mi
10:00 AM62 °FLow clouds.3 mph83%29.99 "Hg9 mi
9:00 AM61 °FLow clouds.2 mph86%29.98 "Hg6 mi
8:00 AM61 °FLow clouds.2 mph87%29.98 "Hg7 mi
7:00 AM61 °FLow clouds.2 mph89%29.98 "Hg6 mi
6:00 AM61 °FFog.1 mph92%29.96 "Hg5 mi
5:00 AM61 °FFog.2 mph93%29.94 "Hg3 mi
Weather by CustomWeather, © 2014

See weather overviewHow to use our weather pages